Year,Month,Day,Hour,Minute,Value (Times are PST for temperature in C)
2018,10,04,00,00,3.60
2018,10,04,00,01,3.60
2018,10,04,00,02,3.60
2018,10,04,00,03,3.60
2018,10,04,00,04,3.60
2018,10,04,00,05,3.60
2018,10,04,00,06,3.60
2018,10,04,00,07,3.60
2018,10,04,00,08,3.60
2018,10,04,00,09,3.60
2018,10,04,00,10,3.60
2018,10,04,00,11,3.50
2018,10,04,00,12,3.50
2018,10,04,00,13,3.50
2018,10,04,00,14,3.50
2018,10,04,00,15,3.40
2018,10,04,00,16,3.40
2018,10,04,00,17,3.40
2018,10,04,00,18,3.40
2018,10,04,00,19,3.40
2018,10,04,00,20,3.40
2018,10,04,00,21,3.40
2018,10,04,00,22,3.40
2018,10,04,00,23,3.40
2018,10,04,00,24,3.40
2018,10,04,00,25,3.40
2018,10,04,00,26,3.40
2018,10,04,00,27,3.40
2018,10,04,00,28,3.40
2018,10,04,00,29,3.40
2018,10,04,00,30,3.50
2018,10,04,00,31,3.50
2018,10,04,00,32,3.40
2018,10,04,00,33,3.40
2018,10,04,00,34,3.40
2018,10,04,00,35,3.40
2018,10,04,00,36,3.40
2018,10,04,00,37,3.30
2018,10,04,00,38,3.30
2018,10,04,00,39,3.30
2018,10,04,00,40,3.30
2018,10,04,00,41,3.30
2018,10,04,00,42,3.30
2018,10,04,00,43,3.30
2018,10,04,00,44,3.20
2018,10,04,00,45,3.30
2018,10,04,00,46,3.30
2018,10,04,00,47,3.30
2018,10,04,00,48,3.30
2018,10,04,00,49,3.30
2018,10,04,00,50,3.30
2018,10,04,00,51,3.30
2018,10,04,00,52,3.30
2018,10,04,00,53,3.30
2018,10,04,00,54,3.30
2018,10,04,00,55,3.40
2018,10,04,00,56,3.40
2018,10,04,00,57,3.40
2018,10,04,00,58,3.40
2018,10,04,00,59,3.40
2018,10,04,01,00,3.40
2018,10,04,01,01,3.50
2018,10,04,01,02,3.50
2018,10,04,01,03,3.50
2018,10,04,01,04,3.50
2018,10,04,01,05,3.50
2018,10,04,01,06,3.50
2018,10,04,01,07,3.50
2018,10,04,01,08,3.50
2018,10,04,01,09,3.50
2018,10,04,01,10,3.50
2018,10,04,01,11,3.50
2018,10,04,01,12,3.50
2018,10,04,01,13,3.50
2018,10,04,01,14,3.50
2018,10,04,01,15,3.50
2018,10,04,01,16,3.50
2018,10,04,01,17,3.50
2018,10,04,01,18,3.50
2018,10,04,01,19,3.50
2018,10,04,01,20,3.50
2018,10,04,01,21,3.50
2018,10,04,01,22,3.50
2018,10,04,01,23,3.50
2018,10,04,01,24,3.50
2018,10,04,01,25,3.50
2018,10,04,01,26,3.50
2018,10,04,01,27,3.40
2018,10,04,01,28,3.40
2018,10,04,01,29,3.40
2018,10,04,01,30,3.40
2018,10,04,01,31,3.40
2018,10,04,01,32,3.40
2018,10,04,01,33,3.40
2018,10,04,01,34,3.40
2018,10,04,01,35,3.40
2018,10,04,01,36,3.40
2018,10,04,01,37,3.40
2018,10,04,01,38,3.40
2018,10,04,01,39,3.40
2018,10,04,01,40,3.40
2018,10,04,01,41,3.40
2018,10,04,01,42,3.40
2018,10,04,01,43,3.40
2018,10,04,01,44,3.40
2018,10,04,01,45,3.40
2018,10,04,01,46,3.40
2018,10,04,01,47,3.40
2018,10,04,01,48,3.40
2018,10,04,01,49,3.40
2018,10,04,01,50,3.40
2018,10,04,01,51,3.40
2018,10,04,01,52,3.40
2018,10,04,01,53,3.40
2018,10,04,01,54,3.40
2018,10,04,01,55,3.40
2018,10,04,01,56,3.50
2018,10,04,01,57,3.50
2018,10,04,01,58,3.50
2018,10,04,01,59,3.50
2018,10,04,02,00,3.50
2018,10,04,02,01,3.40
2018,10,04,02,02,3.40
2018,10,04,02,03,3.40
2018,10,04,02,04,3.40
2018,10,04,02,05,3.40
2018,10,04,02,06,3.40
2018,10,04,02,07,3.50
2018,10,04,02,08,3.50
2018,10,04,02,09,3.50
2018,10,04,02,10,3.50
2018,10,04,02,11,3.50
2018,10,04,02,12,3.50
2018,10,04,02,13,3.50
2018,10,04,02,14,3.40
2018,10,04,02,15,3.40
2018,10,04,02,16,3.40
2018,10,04,02,17,3.40
2018,10,04,02,18,3.50
2018,10,04,02,19,3.50
2018,10,04,02,20,3.40
2018,10,04,02,21,3.40
2018,10,04,02,22,3.40
2018,10,04,02,23,3.50
2018,10,04,02,24,3.50
2018,10,04,02,25,3.50
2018,10,04,02,26,3.50
2018,10,04,02,27,3.50
2018,10,04,02,28,3.50
2018,10,04,02,29,3.50
2018,10,04,02,30,3.50
2018,10,04,02,31,3.50
2018,10,04,02,32,3.60
2018,10,04,02,33,3.60
2018,10,04,02,34,3.60
2018,10,04,02,35,3.60
2018,10,04,02,36,3.60
2018,10,04,02,37,3.60
2018,10,04,02,38,3.60
2018,10,04,02,39,3.60
2018,10,04,02,40,3.50
2018,10,04,02,41,3.50
2018,10,04,02,42,3.50
2018,10,04,02,43,3.50
2018,10,04,02,44,3.50
2018,10,04,02,45,3.50
2018,10,04,02,46,3.50
2018,10,04,02,47,3.50
2018,10,04,02,48,3.50
2018,10,04,02,49,3.50
2018,10,04,02,50,3.50
2018,10,04,02,51,3.50
2018,10,04,02,52,3.40
2018,10,04,02,53,3.40
2018,10,04,02,54,3.40
2018,10,04,02,55,3.40
2018,10,04,02,56,3.40
2018,10,04,02,57,3.40
2018,10,04,02,58,3.40
2018,10,04,02,59,3.40
2018,10,04,03,00,3.40
2018,10,04,03,01,3.40
2018,10,04,03,02,3.30
2018,10,04,03,03,3.40
2018,10,04,03,04,3.40
2018,10,04,03,05,3.40
2018,10,04,03,06,3.40
2018,10,04,03,07,3.40
2018,10,04,03,08,3.30
2018,10,04,03,09,3.30
2018,10,04,03,10,3.30
2018,10,04,03,11,3.40
2018,10,04,03,12,3.40
2018,10,04,03,13,3.40
2018,10,04,03,14,3.40
2018,10,04,03,15,3.40
2018,10,04,03,16,3.40
2018,10,04,03,17,3.40
2018,10,04,03,18,3.40
2018,10,04,03,19,3.30
2018,10,04,03,20,3.30
2018,10,04,03,21,3.30
2018,10,04,03,22,3.30
2018,10,04,03,23,3.30
2018,10,04,03,24,3.30
2018,10,04,03,25,3.20
2018,10,04,03,26,3.20
2018,10,04,03,27,3.20
2018,10,04,03,28,3.20
2018,10,04,03,29,3.10
2018,10,04,03,30,3.10
2018,10,04,03,31,3.10
2018,10,04,03,32,3.10
2018,10,04,03,33,3.10
2018,10,04,03,34,3.10
2018,10,04,03,35,3.10
2018,10,04,03,36,3.10
2018,10,04,03,37,3.10
2018,10,04,03,38,3.10
2018,10,04,03,39,3.10
2018,10,04,03,40,3.10
2018,10,04,03,41,3.10
2018,10,04,03,42,3.10
2018,10,04,03,43,3.10
2018,10,04,03,44,3.10
2018,10,04,03,45,3.10
2018,10,04,03,46,3.00
2018,10,04,03,47,3.00
2018,10,04,03,48,3.00
2018,10,04,03,49,2.90
2018,10,04,03,50,2.90
2018,10,04,03,51,2.90
2018,10,04,03,52,2.90
2018,10,04,03,53,2.80
2018,10,04,03,54,2.80
2018,10,04,03,55,2.80
2018,10,04,03,56,2.80
2018,10,04,03,57,2.80
2018,10,04,03,58,2.80
2018,10,04,03,59,2.80
2018,10,04,04,00,2.80
2018,10,04,04,01,2.80
2018,10,04,04,02,2.80
2018,10,04,04,03,2.80
2018,10,04,04,04,2.80
2018,10,04,04,05,2.80
2018,10,04,04,06,2.80
2018,10,04,04,07,2.80
2018,10,04,04,08,2.80
2018,10,04,04,09,2.80
2018,10,04,04,10,2.80
2018,10,04,04,11,2.80
2018,10,04,04,12,2.80
2018,10,04,04,13,2.80
2018,10,04,04,14,2.80
2018,10,04,04,15,2.80
2018,10,04,04,16,2.80
2018,10,04,04,17,2.70
2018,10,04,04,18,2.70
2018,10,04,04,19,2.70
2018,10,04,04,20,2.60
2018,10,04,04,21,2.60
2018,10,04,04,22,2.60
2018,10,04,04,23,2.50
2018,10,04,04,24,2.50
2018,10,04,04,25,2.50
2018,10,04,04,26,2.50
2018,10,04,04,27,2.50
2018,10,04,04,28,2.50
2018,10,04,04,29,2.50
2018,10,04,04,30,2.50
2018,10,04,04,31,2.50
2018,10,04,04,32,2.50
2018,10,04,04,33,2.50
2018,10,04,04,34,2.40
2018,10,04,04,35,2.40
2018,10,04,04,36,2.40
2018,10,04,04,37,2.40
2018,10,04,04,38,2.40
2018,10,04,04,39,2.40
2018,10,04,04,40,2.30
2018,10,04,04,41,2.30
2018,10,04,04,42,2.30
2018,10,04,04,43,2.30
2018,10,04,04,44,2.30
2018,10,04,04,45,2.30
2018,10,04,04,46,2.30
2018,10,04,04,47,2.20
2018,10,04,04,48,2.20
2018,10,04,04,49,2.30
2018,10,04,04,50,2.30
2018,10,04,04,51,2.30
2018,10,04,04,52,2.30
2018,10,04,04,53,2.40
2018,10,04,04,54,2.40
2018,10,04,04,55,2.40
2018,10,04,04,56,2.40
2018,10,04,04,57,2.40
2018,10,04,04,58,2.40
2018,10,04,04,59,2.40
2018,10,04,05,00,2.50
2018,10,04,05,01,2.50
2018,10,04,05,02,2.60
2018,10,04,05,03,2.60
2018,10,04,05,04,2.60
2018,10,04,05,05,2.50
2018,10,04,05,06,2.50
2018,10,04,05,07,2.50
2018,10,04,05,08,2.50
2018,10,04,05,09,2.40
2018,10,04,05,10,2.40
2018,10,04,05,11,2.30
2018,10,04,05,12,2.30
2018,10,04,05,13,2.30
2018,10,04,05,14,2.20
2018,10,04,05,15,2.20
2018,10,04,05,16,2.20
2018,10,04,05,17,2.20
2018,10,04,05,18,2.20
2018,10,04,05,19,2.20
2018,10,04,05,20,2.20
2018,10,04,05,21,2.10
2018,10,04,05,22,2.10
2018,10,04,05,23,2.10
2018,10,04,05,24,2.00
2018,10,04,05,25,2.00
2018,10,04,05,26,2.00
2018,10,04,05,27,2.00
2018,10,04,05,28,2.00
2018,10,04,05,29,2.10
2018,10,04,05,30,2.10
2018,10,04,05,31,2.10
2018,10,04,05,32,2.10
2018,10,04,05,33,2.10
2018,10,04,05,34,2.00
2018,10,04,05,35,2.00
2018,10,04,05,36,2.00
2018,10,04,05,37,1.90
2018,10,04,05,38,1.90
2018,10,04,05,39,1.90
2018,10,04,05,40,1.90
2018,10,04,05,41,1.90
2018,10,04,05,42,1.90
2018,10,04,05,43,1.90
2018,10,04,05,44,2.00
2018,10,04,05,45,1.90
2018,10,04,05,46,1.90
2018,10,04,05,47,1.90
2018,10,04,05,48,1.90
2018,10,04,05,49,1.80
2018,10,04,05,50,1.80
2018,10,04,05,51,1.80
2018,10,04,05,52,1.80
2018,10,04,05,53,1.80
2018,10,04,05,54,1.70
2018,10,04,05,55,1.70
2018,10,04,05,56,1.70
2018,10,04,05,57,1.70
2018,10,04,05,58,1.70
2018,10,04,05,59,1.70
2018,10,04,06,00,1.80
2018,10,04,06,01,1.70
2018,10,04,06,02,1.70
2018,10,04,06,03,1.70
2018,10,04,06,04,1.70
2018,10,04,06,05,1.70
2018,10,04,06,06,1.70
2018,10,04,06,07,1.70
2018,10,04,06,08,1.70
2018,10,04,06,09,1.70
2018,10,04,06,10,1.70
2018,10,04,06,11,1.70
2018,10,04,06,12,1.70
2018,10,04,06,13,1.70
2018,10,04,06,14,1.70
2018,10,04,06,15,1.60
2018,10,04,06,16,1.60
2018,10,04,06,17,1.60
2018,10,04,06,18,1.60
2018,10,04,06,19,1.60
2018,10,04,06,20,1.50
2018,10,04,06,21,1.50
2018,10,04,06,22,1.50
2018,10,04,06,23,1.40
2018,10,04,06,24,1.40
2018,10,04,06,25,1.40
2018,10,04,06,26,1.40
2018,10,04,06,27,1.40
2018,10,04,06,28,1.30
2018,10,04,06,29,1.30
2018,10,04,06,30,1.30
2018,10,04,06,31,1.30
2018,10,04,06,32,1.30
2018,10,04,06,33,1.30
2018,10,04,06,34,1.30
2018,10,04,06,35,1.30
2018,10,04,06,36,1.30
2018,10,04,06,37,1.30
2018,10,04,06,38,1.30
2018,10,04,06,39,1.30
2018,10,04,06,40,1.20
2018,10,04,06,41,1.20
2018,10,04,06,42,1.20
2018,10,04,06,43,1.20
2018,10,04,06,44,1.20
2018,10,04,06,45,1.20
2018,10,04,06,46,1.20
2018,10,04,06,47,1.20
2018,10,04,06,48,1.20
2018,10,04,06,49,1.20
2018,10,04,06,50,1.20
2018,10,04,06,51,1.20
2018,10,04,06,52,1.20
2018,10,04,06,53,1.20
2018,10,04,06,54,1.20
2018,10,04,06,55,1.20
2018,10,04,06,56,1.20
2018,10,04,06,57,1.30
2018,10,04,06,58,1.30
2018,10,04,06,59,1.30
2018,10,04,07,00,1.30
2018,10,04,07,01,1.30
2018,10,04,07,02,1.30
2018,10,04,07,03,1.30
2018,10,04,07,04,1.30
2018,10,04,07,05,1.30
2018,10,04,07,06,1.30
2018,10,04,07,07,1.30
2018,10,04,07,08,1.30
2018,10,04,07,09,1.30
2018,10,04,07,10,1.30
2018,10,04,07,11,1.20
2018,10,04,07,12,1.20
2018,10,04,07,13,1.20
2018,10,04,07,14,1.20
2018,10,04,07,15,1.20
2018,10,04,07,16,1.20
2018,10,04,07,17,1.20
2018,10,04,07,18,1.20
2018,10,04,07,19,1.20
2018,10,04,07,20,1.20
2018,10,04,07,21,1.20
2018,10,04,07,22,1.10
2018,10,04,07,23,1.10
2018,10,04,07,24,1.10
2018,10,04,07,25,1.10
2018,10,04,07,26,1.10
2018,10,04,07,27,1.10
2018,10,04,07,28,1.10
2018,10,04,07,29,1.10
2018,10,04,07,30,1.00
2018,10,04,07,31,1.00
2018,10,04,07,32,1.00
2018,10,04,07,33,1.00
2018,10,04,07,34,1.00
2018,10,04,07,35,1.00
2018,10,04,07,36,1.00
2018,10,04,07,37,1.00
2018,10,04,07,38,1.00
2018,10,04,07,39,1.00
2018,10,04,07,40,1.00
2018,10,04,07,41,1.00
2018,10,04,07,42,1.00
2018,10,04,07,43,0.90
2018,10,04,07,44,0.90
2018,10,04,07,45,0.90
2018,10,04,07,46,0.90
2018,10,04,07,47,0.90
2018,10,04,07,48,0.90
2018,10,04,07,49,0.90
2018,10,04,07,50,0.90
2018,10,04,07,51,0.90
2018,10,04,07,52,0.90
2018,10,04,07,53,0.90
2018,10,04,07,54,0.90
2018,10,04,07,55,0.90
2018,10,04,07,56,0.90
2018,10,04,07,57,0.90
2018,10,04,07,58,0.90
2018,10,04,07,59,0.90
2018,10,04,08,00,1.00
2018,10,04,08,01,1.00
2018,10,04,08,02,1.10
2018,10,04,08,03,1.10
2018,10,04,08,04,1.20
2018,10,04,08,05,1.20
2018,10,04,08,06,1.20
2018,10,04,08,07,1.30
2018,10,04,08,08,1.30
2018,10,04,08,09,1.40
2018,10,04,08,10,1.40
2018,10,04,08,11,1.50
2018,10,04,08,12,1.50
2018,10,04,08,13,1.60
2018,10,04,08,14,1.60
2018,10,04,08,15,1.60
2018,10,04,08,16,1.70
2018,10,04,08,17,1.70
2018,10,04,08,18,1.70
2018,10,04,08,19,1.80
2018,10,04,08,20,1.80
2018,10,04,08,21,1.90
2018,10,04,08,22,1.90
2018,10,04,08,23,2.00
2018,10,04,08,24,2.10
2018,10,04,08,25,2.10
2018,10,04,08,26,2.20
2018,10,04,08,27,2.30
2018,10,04,08,28,2.40
2018,10,04,08,29,2.40
2018,10,04,08,30,2.50
2018,10,04,08,31,2.60
2018,10,04,08,32,2.70
2018,10,04,08,33,2.70
2018,10,04,08,34,2.80
2018,10,04,08,35,2.90
2018,10,04,08,36,2.90
2018,10,04,08,37,3.00
2018,10,04,08,38,3.10
2018,10,04,08,39,3.10
2018,10,04,08,40,3.20
2018,10,04,08,41,3.30
2018,10,04,08,42,3.30
2018,10,04,08,43,3.40
2018,10,04,08,44,3.50
2018,10,04,08,45,3.50
2018,10,04,08,46,3.60
2018,10,04,08,47,3.70
2018,10,04,08,48,3.80
2018,10,04,08,49,3.80
2018,10,04,08,50,3.90
2018,10,04,08,51,4.00
2018,10,04,08,52,4.00
2018,10,04,08,53,4.10
2018,10,04,08,54,4.20
2018,10,04,08,55,4.20
2018,10,04,08,56,4.30
2018,10,04,08,57,4.40
2018,10,04,08,58,4.50
2018,10,04,08,59,4.60
2018,10,04,09,00,4.70
2018,10,04,09,01,4.80
2018,10,04,09,02,4.90
2018,10,04,09,03,5.00
2018,10,04,09,04,5.10
2018,10,04,09,05,5.10
2018,10,04,09,06,5.20
2018,10,04,09,07,5.30
2018,10,04,09,08,5.40
2018,10,04,09,09,5.50
2018,10,04,09,10,5.50
2018,10,04,09,11,5.60
2018,10,04,09,12,5.70
2018,10,04,09,13,5.80
2018,10,04,09,14,5.80
2018,10,04,09,15,5.90
2018,10,04,09,16,6.00
2018,10,04,09,17,6.00
2018,10,04,09,18,6.10
2018,10,04,09,19,6.20
2018,10,04,09,20,6.20
2018,10,04,09,21,6.30
2018,10,04,09,22,6.30
2018,10,04,09,23,6.40
2018,10,04,09,24,6.40
2018,10,04,09,25,6.50
2018,10,04,09,26,6.50
2018,10,04,09,27,6.60
2018,10,04,09,28,6.60
2018,10,04,09,29,6.70
2018,10,04,09,30,6.70
2018,10,04,09,31,6.70
2018,10,04,09,32,6.80
2018,10,04,09,33,6.80
2018,10,04,09,34,6.80
2018,10,04,09,35,6.80
2018,10,04,09,36,6.90
2018,10,04,09,37,6.90
2018,10,04,09,38,7.00
2018,10,04,09,39,7.00
2018,10,04,09,40,7.10
2018,10,04,09,41,7.10
2018,10,04,09,42,7.10
2018,10,04,09,43,7.10
2018,10,04,09,44,7.20
2018,10,04,09,45,7.20
2018,10,04,09,46,7.20
2018,10,04,09,47,7.20
2018,10,04,09,48,7.30
2018,10,04,09,49,7.30
2018,10,04,09,50,7.30
2018,10,04,09,51,7.30
2018,10,04,09,52,7.40
2018,10,04,09,53,7.40
2018,10,04,09,54,7.40
2018,10,04,09,55,7.50
2018,10,04,09,56,7.50
2018,10,04,09,57,7.60
2018,10,04,09,58,7.60
2018,10,04,09,59,7.70
2018,10,04,10,00,7.70
2018,10,04,10,01,7.80
2018,10,04,10,02,7.80
2018,10,04,10,03,7.80
2018,10,04,10,04,7.90
2018,10,04,10,05,7.90
2018,10,04,10,06,8.00
2018,10,04,10,07,8.00
2018,10,04,10,08,8.10
2018,10,04,10,09,8.10
2018,10,04,10,10,8.20
2018,10,04,10,11,8.20
2018,10,04,10,12,8.20
2018,10,04,10,13,8.10
2018,10,04,10,14,8.20
2018,10,04,10,15,8.20
2018,10,04,10,16,8.20
2018,10,04,10,17,8.20
2018,10,04,10,18,8.20
2018,10,04,10,19,8.20
2018,10,04,10,20,8.20
2018,10,04,10,21,8.20
2018,10,04,10,22,8.20
2018,10,04,10,23,8.30
2018,10,04,10,24,8.30
2018,10,04,10,25,8.30
2018,10,04,10,26,8.30
2018,10,04,10,27,8.30
2018,10,04,10,28,8.30
2018,10,04,10,29,8.30
2018,10,04,10,30,8.40
2018,10,04,10,31,8.40
2018,10,04,10,32,8.50
2018,10,04,10,33,8.50
2018,10,04,10,34,8.60
2018,10,04,10,35,8.60
2018,10,04,10,36,8.70
2018,10,04,10,37,8.70
2018,10,04,10,38,8.80
2018,10,04,10,39,8.80
2018,10,04,10,40,8.80
2018,10,04,10,41,8.90
2018,10,04,10,42,9.00
2018,10,04,10,43,9.00
2018,10,04,10,44,9.00
2018,10,04,10,45,9.10
2018,10,04,10,46,9.20
2018,10,04,10,47,9.30
2018,10,04,10,48,9.40
2018,10,04,10,49,9.40
2018,10,04,10,50,9.50
2018,10,04,10,51,9.60
2018,10,04,10,52,9.70
2018,10,04,10,53,9.70
2018,10,04,10,54,9.80
2018,10,04,10,55,9.80
2018,10,04,10,56,9.80
2018,10,04,10,57,9.80
2018,10,04,10,58,9.80
2018,10,04,10,59,9.80
2018,10,04,11,00,9.80
2018,10,04,11,01,9.80
2018,10,04,11,02,9.90
2018,10,04,11,03,9.90
2018,10,04,11,04,9.90
2018,10,04,11,05,10.00
2018,10,04,11,06,10.00
2018,10,04,11,07,10.10
2018,10,04,11,08,10.20
2018,10,04,11,09,10.30
2018,10,04,11,10,10.40
2018,10,04,11,11,10.40
2018,10,04,11,12,10.50
2018,10,04,11,13,10.60
2018,10,04,11,14,10.70
2018,10,04,11,15,10.70
2018,10,04,11,16,10.80
2018,10,04,11,17,10.80
2018,10,04,11,18,10.90
2018,10,04,11,19,10.90
2018,10,04,11,20,10.90
2018,10,04,11,21,10.90
2018,10,04,11,22,10.90
2018,10,04,11,23,10.90
2018,10,04,11,24,10.80
2018,10,04,11,25,10.80
2018,10,04,11,26,10.80
2018,10,04,11,27,10.70
2018,10,04,11,28,10.70
2018,10,04,11,29,10.70
2018,10,04,11,30,10.70
2018,10,04,11,31,10.70
2018,10,04,11,32,10.70
2018,10,04,11,33,10.70
2018,10,04,11,34,10.80
2018,10,04,11,35,10.70
2018,10,04,11,36,10.70
2018,10,04,11,37,10.70
2018,10,04,11,38,10.70
2018,10,04,11,39,10.80
2018,10,04,11,40,10.80
2018,10,04,11,41,10.80
2018,10,04,11,42,10.80
2018,10,04,11,43,10.80
2018,10,04,11,44,10.70
2018,10,04,11,45,10.70
2018,10,04,11,46,10.60
2018,10,04,11,47,10.60
2018,10,04,11,48,10.60
2018,10,04,11,49,10.60
2018,10,04,11,50,10.50
2018,10,04,11,51,10.50
2018,10,04,11,52,10.50
2018,10,04,11,53,10.50
2018,10,04,11,54,10.50
2018,10,04,11,55,10.40
2018,10,04,11,56,10.40
2018,10,04,11,57,10.40
2018,10,04,11,58,10.40
2018,10,04,11,59,10.40
2018,10,04,12,00,10.40
2018,10,04,12,01,10.40
2018,10,04,12,02,10.30
2018,10,04,12,03,10.30
2018,10,04,12,04,10.30
2018,10,04,12,05,10.30
2018,10,04,12,06,10.20
2018,10,04,12,07,10.20
2018,10,04,12,08,10.30
2018,10,04,12,09,10.30
2018,10,04,12,10,10.40
2018,10,04,12,11,10.40
2018,10,04,12,12,10.50
2018,10,04,12,13,10.50
2018,10,04,12,14,10.50
2018,10,04,12,15,10.50
2018,10,04,12,16,10.60
2018,10,04,12,17,10.60
2018,10,04,12,18,10.60
2018,10,04,12,19,10.60
2018,10,04,12,20,10.60
2018,10,04,12,21,10.60
2018,10,04,12,22,10.60
2018,10,04,12,23,10.60
2018,10,04,12,24,10.60
2018,10,04,12,25,10.60
2018,10,04,12,26,10.60
2018,10,04,12,27,10.60
2018,10,04,12,28,10.60
2018,10,04,12,29,10.60
2018,10,04,12,30,10.60
2018,10,04,12,31,10.60
2018,10,04,12,32,10.60
2018,10,04,12,33,10.70
2018,10,04,12,34,10.70
2018,10,04,12,35,10.70
2018,10,04,12,36,10.70
2018,10,04,12,37,10.70
2018,10,04,12,38,10.70
2018,10,04,12,39,10.70
2018,10,04,12,40,10.70
2018,10,04,12,41,10.70
2018,10,04,12,42,10.70
2018,10,04,12,43,10.70
2018,10,04,12,44,10.70
2018,10,04,12,45,10.70
2018,10,04,12,46,10.60
2018,10,04,12,47,10.60
2018,10,04,12,48,10.60
2018,10,04,12,49,10.60
2018,10,04,12,50,10.60
2018,10,04,12,51,10.60
2018,10,04,12,52,10.60
2018,10,04,12,53,10.60
2018,10,04,12,54,10.60
2018,10,04,12,55,10.60
2018,10,04,12,56,10.70
2018,10,04,12,57,10.70
2018,10,04,12,58,10.80
2018,10,04,12,59,10.90
2018,10,04,13,00,11.00
2018,10,04,13,01,11.10
2018,10,04,13,02,11.20
2018,10,04,13,03,11.30
2018,10,04,13,04,11.30
2018,10,04,13,05,11.40
2018,10,04,13,06,11.40
2018,10,04,13,07,11.50
2018,10,04,13,08,11.60
2018,10,04,13,09,11.60
2018,10,04,13,10,11.70
2018,10,04,13,11,11.70
2018,10,04,13,12,11.70
2018,10,04,13,13,11.70
2018,10,04,13,14,11.70
2018,10,04,13,15,11.70
2018,10,04,13,16,11.60
2018,10,04,13,17,11.60
2018,10,04,13,18,11.60
2018,10,04,13,19,11.70
2018,10,04,13,20,11.70
2018,10,04,13,21,11.70
2018,10,04,13,22,11.70
2018,10,04,13,23,11.70
2018,10,04,13,24,11.70
2018,10,04,13,25,11.70
2018,10,04,13,26,11.70
2018,10,04,13,27,11.70
2018,10,04,13,28,11.70
2018,10,04,13,29,11.70
2018,10,04,13,30,11.70
2018,10,04,13,31,11.70
2018,10,04,13,32,11.80
2018,10,04,13,33,11.80
2018,10,04,13,34,11.80
2018,10,04,13,35,11.80
2018,10,04,13,36,11.90
2018,10,04,13,37,11.90
2018,10,04,13,38,11.90
2018,10,04,13,39,11.90
2018,10,04,13,40,12.00
2018,10,04,13,41,12.00
2018,10,04,13,42,12.10
2018,10,04,13,43,12.10
2018,10,04,13,44,12.10
2018,10,04,13,45,12.10
2018,10,04,13,46,12.10
2018,10,04,13,47,12.10
2018,10,04,13,48,12.10
2018,10,04,13,49,12.10
2018,10,04,13,50,12.20
2018,10,04,13,51,12.20
2018,10,04,13,52,12.30
2018,10,04,13,53,12.30
2018,10,04,13,54,12.20
2018,10,04,13,55,12.20
2018,10,04,13,56,12.20
2018,10,04,13,57,12.10
2018,10,04,13,58,12.10
2018,10,04,13,59,12.10
2018,10,04,14,00,12.10
2018,10,04,14,01,12.10
2018,10,04,14,02,12.10
2018,10,04,14,03,12.20
2018,10,04,14,04,12.10
2018,10,04,14,05,12.20
2018,10,04,14,06,12.20
2018,10,04,14,07,12.20
2018,10,04,14,08,12.20
2018,10,04,14,09,12.20
2018,10,04,14,10,12.10
2018,10,04,14,11,12.10
2018,10,04,14,12,12.10
2018,10,04,14,13,12.10
2018,10,04,14,14,12.10
2018,10,04,14,15,12.10
2018,10,04,14,16,12.10
2018,10,04,14,17,12.00
2018,10,04,14,18,12.00
2018,10,04,14,19,12.00
2018,10,04,14,20,12.00
2018,10,04,14,21,12.00
2018,10,04,14,22,11.90
2018,10,04,14,23,11.90
2018,10,04,14,24,11.90
2018,10,04,14,25,12.00
2018,10,04,14,26,12.00
2018,10,04,14,27,12.00
2018,10,04,14,28,11.90
2018,10,04,14,29,11.90
2018,10,04,14,30,11.80
2018,10,04,14,31,11.80
2018,10,04,14,32,11.80
2018,10,04,14,33,11.70
2018,10,04,14,34,11.70
2018,10,04,14,35,11.70
2018,10,04,14,36,11.80
2018,10,04,14,37,11.80
2018,10,04,14,38,11.80
2018,10,04,14,39,11.90
2018,10,04,14,40,12.00
2018,10,04,14,41,12.00
2018,10,04,14,42,12.00
2018,10,04,14,43,12.00
2018,10,04,14,44,11.90
2018,10,04,14,45,11.90
2018,10,04,14,46,12.00
2018,10,04,14,47,12.00
2018,10,04,14,48,12.00
2018,10,04,14,49,12.00
2018,10,04,14,50,12.00
2018,10,04,14,51,12.00
2018,10,04,14,52,11.90
2018,10,04,14,53,11.90
2018,10,04,14,54,11.80
2018,10,04,14,55,11.80
2018,10,04,14,56,11.70
2018,10,04,14,57,11.80
2018,10,04,14,58,11.80
2018,10,04,14,59,11.80
2018,10,04,15,00,11.80
2018,10,04,15,01,11.90
2018,10,04,15,02,11.90
2018,10,04,15,03,12.00
2018,10,04,15,04,12.00
2018,10,04,15,05,12.10
2018,10,04,15,06,12.20
2018,10,04,15,07,12.20
2018,10,04,15,08,12.30
2018,10,04,15,09,12.30
2018,10,04,15,10,12.30
2018,10,04,15,11,12.30
2018,10,04,15,12,12.30
2018,10,04,15,13,12.30
2018,10,04,15,14,12.30
2018,10,04,15,15,12.30
2018,10,04,15,16,12.30
2018,10,04,15,17,12.30
2018,10,04,15,18,12.30
2018,10,04,15,19,12.30
2018,10,04,15,20,12.20
2018,10,04,15,21,12.20
2018,10,04,15,22,12.20
2018,10,04,15,23,12.20
2018,10,04,15,24,12.20
2018,10,04,15,25,12.20
2018,10,04,15,26,12.20
2018,10,04,15,27,12.20
2018,10,04,15,28,12.20
2018,10,04,15,29,12.20
2018,10,04,15,30,12.20
2018,10,04,15,31,12.20
2018,10,04,15,32,12.30
2018,10,04,15,33,12.30
2018,10,04,15,34,12.30
2018,10,04,15,35,12.30
2018,10,04,15,36,12.30
2018,10,04,15,37,12.30
2018,10,04,15,38,12.30
2018,10,04,15,39,12.40
2018,10,04,15,40,12.40
2018,10,04,15,41,12.30
2018,10,04,15,42,12.30
2018,10,04,15,43,12.30
2018,10,04,15,44,12.30
2018,10,04,15,45,12.30
2018,10,04,15,46,12.30
2018,10,04,15,47,12.30
2018,10,04,15,48,12.20
2018,10,04,15,49,12.20
2018,10,04,15,50,12.20
2018,10,04,15,51,12.10
2018,10,04,15,52,12.10
2018,10,04,15,53,12.20
2018,10,04,15,54,12.20
2018,10,04,15,55,12.20
2018,10,04,15,56,12.20
2018,10,04,15,57,12.20
2018,10,04,15,58,12.20
2018,10,04,15,59,12.20
2018,10,04,16,00,12.30
2018,10,04,16,01,12.30
2018,10,04,16,02,12.30
2018,10,04,16,03,12.30
2018,10,04,16,04,12.40
2018,10,04,16,05,12.40
2018,10,04,16,06,12.50
2018,10,04,16,07,12.60
2018,10,04,16,08,12.60
2018,10,04,16,09,12.60
2018,10,04,16,10,12.60
2018,10,04,16,11,12.60
2018,10,04,16,12,12.60
2018,10,04,16,13,12.70
2018,10,04,16,14,12.70
2018,10,04,16,15,12.70
2018,10,04,16,16,12.80
2018,10,04,16,17,12.80
2018,10,04,16,18,12.80
2018,10,04,16,19,12.80
2018,10,04,16,20,12.80
2018,10,04,16,21,12.80
2018,10,04,16,22,12.80
2018,10,04,16,23,12.80
2018,10,04,16,24,12.80
2018,10,04,16,25,12.80
2018,10,04,16,26,12.80
2018,10,04,16,27,12.80
2018,10,04,16,28,12.80
2018,10,04,16,29,12.80
2018,10,04,16,30,12.70
2018,10,04,16,31,12.70
2018,10,04,16,32,12.70
2018,10,04,16,33,12.70
2018,10,04,16,34,12.70
2018,10,04,16,35,12.70
2018,10,04,16,36,12.70
2018,10,04,16,37,12.70
2018,10,04,16,38,12.70
2018,10,04,16,39,12.70
2018,10,04,16,40,12.70
2018,10,04,16,41,12.70
2018,10,04,16,42,12.60
2018,10,04,16,43,12.60
2018,10,04,16,44,12.60
2018,10,04,16,45,12.50
2018,10,04,16,46,12.50
2018,10,04,16,47,12.50
2018,10,04,16,48,12.40
2018,10,04,16,49,12.40
2018,10,04,16,50,12.40
2018,10,04,16,51,12.40
2018,10,04,16,52,12.40
2018,10,04,16,53,12.40
2018,10,04,16,54,12.40
2018,10,04,16,55,12.40
2018,10,04,16,56,12.40
2018,10,04,16,57,12.30
2018,10,04,16,58,12.30
2018,10,04,16,59,12.30
2018,10,04,17,00,12.30
2018,10,04,17,01,12.30
2018,10,04,17,02,12.30
2018,10,04,17,03,12.30
2018,10,04,17,04,12.40
2018,10,04,17,05,12.40
2018,10,04,17,06,12.30
2018,10,04,17,07,12.30
2018,10,04,17,08,12.30
2018,10,04,17,09,12.30
2018,10,04,17,10,12.30
2018,10,04,17,11,12.30
2018,10,04,17,12,12.30
2018,10,04,17,13,12.30
2018,10,04,17,14,12.30
2018,10,04,17,15,12.30
2018,10,04,17,16,12.30
2018,10,04,17,17,12.30
2018,10,04,17,18,12.30
2018,10,04,17,19,12.20
2018,10,04,17,20,12.20
2018,10,04,17,21,12.20
2018,10,04,17,22,12.20
2018,10,04,17,23,12.20
2018,10,04,17,24,12.20
2018,10,04,17,25,12.20
2018,10,04,17,26,12.20
2018,10,04,17,27,12.20
2018,10,04,17,28,12.20
2018,10,04,17,29,12.20
2018,10,04,17,30,12.10
2018,10,04,17,31,12.20
2018,10,04,17,32,12.10
2018,10,04,17,33,12.10
2018,10,04,17,34,12.10
2018,10,04,17,35,12.10
2018,10,04,17,36,12.10
2018,10,04,17,37,12.10
2018,10,04,17,38,12.10
2018,10,04,17,39,12.10
2018,10,04,17,40,12.10
2018,10,04,17,41,12.10
2018,10,04,17,42,12.10
2018,10,04,17,43,12.10
2018,10,04,17,44,12.00
2018,10,04,17,45,12.00
2018,10,04,17,46,12.00
2018,10,04,17,47,11.90
2018,10,04,17,48,11.90